User: anonymous
Location: Caltech
(34.1382°N, 118.1253°W)
Time: 21:27:03
(UTC-07:00)
Language:

Iridium 14 - Orbit

View from above orbital plane
View from above orbital plane
View from above satellite
View from above satellite

Ground track
Ground track

The orbit data is extracted from the following two-line orbital elements,

1 25777U 99032A   14204.41808185  .00000265  00000-0  56658-4 0    74
2 25777 086.5173 306.9088 0002496 109.2063 295.0468 14.54933077802698
Epoch (UTC): 23 July 2014 10:02:02
Eccentricity: 0.0002496
inclination: 86.5173°
perigee height: 708 km
apogee height: 711 km
right ascension of ascending node: 306.9088°
argument of perigee: 109.2063°
revolutions per day: 14.54933077
mean anomaly at epoch: 295.0468°
orbit number at epoch: 80269

The dashed part of the orbit path shows where the satellite is in the earth's shadow,  

DLR